• în România
  • Lista ţărilor
  • Pe 7 zile
  • Temperatura apei
  • Hartă satelitară
  • Meteo pe hartă
  • Widget-uri
  • user-avatar
    Intrare

    Meteo pe oră la Balashkovo

    Astăzi, 13 Noiembrie, Marţi

    Timp Temperatura Precipitaţii Vânt Presiune Umiditate
    00:00 -7°C° 0 mm 5 m/s 762 mmHg 45%
    01:00 -7°C° 0 mm 5 m/s 762 mmHg 44%
    02:00 -7°C° 0 mm 5 m/s 762 mmHg 48%
    03:00 -7°C° 0 mm 5 m/s 762 mmHg 48%
    04:00 -7°C° 0 mm 5 m/s 761 mmHg 48%
    05:00 -7°C° 0 mm 5 m/s 761 mmHg 47%
    06:00 -8°C° 0 mm 6 m/s 761 mmHg 47%
    07:00 -8°C° 0 mm 6 m/s 761 mmHg 47%
    08:00 -8°C° 0 mm 7 m/s 760 mmHg 45%
    09:00 -7°C° 0 mm 7 m/s 760 mmHg 43%
    10:00 -7°C° 0 mm 7 m/s 760 mmHg 40%
    11:00 -6°C° 0 mm 7 m/s 759 mmHg 38%
    12:00 -4°C° 0 mm 7 m/s 759 mmHg 36%
    13:00 -4°C° 0 mm 7 m/s 758 mmHg 34%
    14:00 -4°C° 0 mm 7 m/s 757 mmHg 32%
    15:00 -4°C° 0 mm 7 m/s 757 mmHg 32%
    16:00 -4°C° 0 mm 7 m/s 757 mmHg 32%
    17:00 -4°C° 0 mm 7 m/s 756 mmHg 32%
    18:00 -4°C° 0 mm 7 m/s 756 mmHg 33%
    19:00 -4°C° 0 mm 7 m/s 756 mmHg 34%
    20:00 -4°C° 0 mm 7 m/s 755 mmHg 35%
    21:00 -4°C° 0 mm 6 m/s 755 mmHg 37%
    22:00 -4°C° 0 mm 6 m/s 754 mmHg 38%
    23:00 -4°C° 0 mm 6 m/s 754 mmHg 39%

    Mâine, 14 Noiembrie, Miercuri

    Timp Temperatura Precipitaţii Vânt Presiune Umiditate
    00:00 -4°C° 0 mm 6 m/s 754 mmHg 41%
    01:00 -4°C° 0 mm 6 m/s 753 mmHg 43%
    02:00 -4°C° 0 mm 6 m/s 753 mmHg 45%
    03:00 -4°C° 0 mm 6 m/s 752 mmHg 46%
    04:00 -5°C° 0 mm 6 m/s 752 mmHg 48%
    05:00 -5°C° 0 mm 6 m/s 751 mmHg 49%
    06:00 -5°C° 0 mm 6 m/s 751 mmHg 51%
    07:00 -4°C° 0 mm 6 m/s 751 mmHg 53%
    08:00 -4°C° 0 mm 5 m/s 751 mmHg 54%
    09:00 -4°C° 0 mm 5 m/s 751 mmHg 54%
    10:00 -4°C° 0 mm 5 m/s 751 mmHg 54%
    11:00 -2°C° 0 mm 5 m/s 751 mmHg 54%
    12:00 -2°C° 0 mm 5 m/s 751 mmHg 56%
    13:00 -2°C° 0 mm 5 m/s 751 mmHg 57%
    14:00 -2°C° 0 mm 4 m/s 751 mmHg 58%
    15:00 -2°C° 0 mm 4 m/s 751 mmHg 61%
    16:00 -3°C° 0 mm 4 m/s 751 mmHg 64%
    17:00 -2°C° 0 mm 3 m/s 751 mmHg 66%
    18:00 -2°C° 0 mm 3 m/s 752 mmHg 70%
    19:00 -2°C° 0 mm 3 m/s 752 mmHg 73%
    20:00 -4°C° 0 mm 3 m/s 752 mmHg 76%
    21:00 -4°C° 0 mm 3 m/s 753 mmHg 78%
    22:00 -4°C° 0 mm 3 m/s 753 mmHg 80%
    23:00 -2°C° 0 mm 3 m/s 753 mmHg 82%

    Poimâine, 15 Noiembrie, Joi

    Timp Temperatura Precipitaţii Vânt Presiune Umiditate
    00:00 -2°C° 0 mm 3 m/s 754 mmHg 82%
    01:00 -2°C° 0 mm 3 m/s 754 mmHg 82%
    02:00 -2°C° 0 mm 2 m/s 755 mmHg 82%
    03:00 -2°C° 0 mm 2 m/s 755 mmHg 85%
    04:00 -2°C° 0 mm 2 m/s 755 mmHg 87%
    05:00 -2°C° 0 mm 2 m/s 755 mmHg 89%
    06:00 -2°C° 0 mm 2 m/s 756 mmHg 88%
    07:00 -2°C° 0 mm 2 m/s 756 mmHg 88%
    08:00 -2°C° 0 mm 2 m/s 757 mmHg 87%
    09:00 -1°C° 0 mm 2 m/s 757 mmHg 84%
    10:00 -1°C° 0 mm 2 m/s 758 mmHg 82%
    11:00 +1°C° 0 mm 2 m/s 758 mmHg 79%
    12:00 +1°C° 0 mm 2 m/s 758 mmHg 79%
    13:00 +1°C° 0 mm 2 m/s 758 mmHg 79%
    14:00 +2°C° 0 mm 1 m/s 759 mmHg 80%
    15:00 -1°C° 0 mm 2 m/s 759 mmHg 82%
    16:00 -1°C° 0 mm 2 m/s 759 mmHg 85%
    17:00 -2°C° 0 mm 2 m/s 760 mmHg 88%
    18:00 0°C° 0 mm 1 m/s 760 mmHg 89%
    19:00 0°C° 0 mm 1 m/s 760 mmHg 90%
    20:00 -1°C° 0 mm 1 m/s 761 mmHg 91%
    21:00 -1°C° 0 mm 1 m/s 761 mmHg 91%
    22:00 -1°C° 0 mm 1 m/s 761 mmHg 91%
    23:00 -1°C° 0 mm 1 m/s 761 mmHg 92%

    16 Noiembrie, Vineri

    Timp Temperatura Precipitaţii Vânt Presiune Umiditate
    00:00 -1°C° 0 mm 1 m/s 762 mmHg 92%
    01:00 -1°C° 0 mm 1 m/s 762 mmHg 92%
    02:00 -1°C° 0 mm 1 m/s 762 mmHg 92%
    03:00 -1°C° 0 mm 1 m/s 762 mmHg 92%
    04:00 0°C° 0 mm 1 m/s 762 mmHg 92%
    05:00 0°C° 0 mm 1 m/s 762 mmHg 93%
    06:00 0°C° 0 mm 1 m/s 762 mmHg 92%
    07:00 0°C° 0 mm 1 m/s 763 mmHg 92%
    08:00 0°C° 0 mm 1 m/s 763 mmHg 92%
    09:00 +1°C° 0 mm 1 m/s 763 mmHg 89%
    10:00 +1°C° 0 mm 1 m/s 763 mmHg 86%
    11:00 +1°C° 0 mm 2 m/s 763 mmHg 84%
    12:00 +1°C° 0 mm 2 m/s 763 mmHg 84%
    13:00 +1°C° 0 mm 2 m/s 763 mmHg 84%
    14:00 +1°C° 0 mm 2 m/s 763 mmHg 85%
    15:00 -1°C° 0 mm 2 m/s 763 mmHg 88%
    16:00 -1°C° 0 mm 2 m/s 763 mmHg 90%
    17:00 -2°C° 0 mm 2 m/s 763 mmHg 93%
    18:00 -2°C° 0 mm 2 m/s 763 mmHg 93%
    19:00 -2°C° 0 mm 2 m/s 763 mmHg 94%
    20:00 -2°C° 0 mm 2 m/s 763 mmHg 94%
    21:00 -2°C° 0 mm 2 m/s 763 mmHg 94%
    22:00 -2°C° 0 mm 2 m/s 763 mmHg 93%
    23:00 -1°C° 0 mm 2 m/s 763 mmHg 93%

    17 Noiembrie, Sâmbătă

    Timp Temperatura Precipitaţii Vânt Presiune Umiditate
    00:00 -1°C° 0 mm 2 m/s 762 mmHg 93%
    01:00 -2°C° 0 mm 2 m/s 762 mmHg 93%
    02:00 -2°C° 0 mm 2 m/s 762 mmHg 93%
    03:00 -2°C° 0 mm 3 m/s 762 mmHg 93%
    04:00 -2°C° 0 mm 3 m/s 761 mmHg 93%
    05:00 -2°C° 0 mm 3 m/s 761 mmHg 93%
    06:00 -2°C° 0 mm 3 m/s 760 mmHg 93%
    07:00 -1°C° 0 mm 3 m/s 760 mmHg 93%
    08:00 -1°C° 0 mm 3 m/s 760 mmHg 93%
    09:00 -1°C° 0 mm 3 m/s 759 mmHg 92%
    10:00 0°C° 0 mm 3 m/s 759 mmHg 90%
    11:00 0°C° 0 mm 3 m/s 759 mmHg 88%
    12:00 0°C° 0 mm 3 m/s 758 mmHg 89%
    13:00 +1°C° 0 mm 3 m/s 757 mmHg 90%
    14:00 +1°C° 0 mm 3 m/s 757 mmHg 91%
    15:00 +1°C° 0 mm 3 m/s 756 mmHg 91%
    16:00 +1°C° 0 mm 3 m/s 755 mmHg 92%
    17:00 0°C° 0 mm 4 m/s 755 mmHg 93%
    18:00 0°C° 0 mm 4 m/s 754 mmHg 93%
    19:00 0°C° 0 mm 4 m/s 753 mmHg 93%
    20:00 0°C° 0 mm 4 m/s 752 mmHg 93%
    21:00 0°C° 0.1 mm 4 m/s 752 mmHg 93%
    22:00 +1°C° 0.1 mm 3 m/s 751 mmHg 94%
    23:00 +1°C° 0.1 mm 3 m/s 751 mmHg 94%

    18 Noiembrie, Duminică

    Timp Temperatura Precipitaţii Vânt Presiune Umiditate
    00:00 +1°C° 0.1 mm 3 m/s 750 mmHg 94%
    01:00 +1°C° 0.1 mm 3 m/s 750 mmHg 93%
    02:00 +1°C° 0.1 mm 3 m/s 749 mmHg 93%
    03:00 0°C° 0 mm 4 m/s 749 mmHg 93%
    04:00 0°C° 0 mm 4 m/s 748 mmHg 92%
    05:00 0°C° 0 mm 4 m/s 748 mmHg 92%
    06:00 0°C° 0.1 mm 4 m/s 747 mmHg 91%
    07:00 0°C° 0.1 mm 4 m/s 747 mmHg 90%
    08:00 0°C° 0.1 mm 4 m/s 747 mmHg 90%
    09:00 +1°C° 0.2 mm 5 m/s 747 mmHg 88%
    10:00 +1°C° 0.2 mm 5 m/s 747 mmHg 86%
    11:00 +1°C° 0.2 mm 6 m/s 747 mmHg 83%
    12:00 +1°C° 0.2 mm 6 m/s 748 mmHg 83%
    13:00 +1°C° 0.2 mm 6 m/s 748 mmHg 82%
    14:00 -1°C° 0.2 mm 6 m/s 748 mmHg 82%
    15:00 -1°C° 0.1 mm 6 m/s 749 mmHg 83%
    16:00 -1°C° 0.1 mm 6 m/s 749 mmHg 83%
    17:00 -1°C° 0.1 mm 6 m/s 750 mmHg 84%
    18:00 -2°C° 0.1 mm 6 m/s 750 mmHg 84%
    19:00 -2°C° 0.1 mm 6 m/s 751 mmHg 84%
    20:00 -2°C° 0.1 mm 6 m/s 751 mmHg 84%
    21:00 -2°C° 0.1 mm 6 m/s 752 mmHg 83%
    22:00 -3°C° 0.1 mm 6 m/s 752 mmHg 83%
    23:00 -3°C° 0.1 mm 6 m/s 753 mmHg 83%
    Arată mai mult